CW9206 Weather Reports


time (UTC)temp
F
wind
direction
speed
knots
gust
knots
rain 1hr
in
rain 24hr
in
rain mn
in
humidity
%
barometer
mb
20260510063743 55 332 0.0 2.6 0.00 0.00 0.00 12 1013.0
20260510063244 55 331 0.0 2.6 0.00 0.00 0.00 12 1012.9
20260510062743 55 332 1.7 1.7 0.00 0.00 0.00 12 1012.9
20260510061744 55 332 0.0 0.0 0.00 0.00 0.00 12 1013.0
20260510061243 55 331 0.0 0.0 0.00 0.00 0.00 12 1012.9
20260510060243 55 332 0.0 0.0 0.00 0.00 0.00 12 1012.9
20260510055744 55 331 0.0 0.0 0.00 0.00 0.00 12 1012.9
20260510055243 55 331 0.0 0.0 0.00 0.00 0.00 12 1012.9
20260510054743 55 332 0.0 0.0 0.00 0.00 0.00 12 1012.9
20260510054243 55 332 0.0 0.0 0.00 0.00 0.00 12 1012.9
20260510053743 55 331 0.0 0.0 0.00 0.00 0.00 12 1012.9
20260510053243 55 332 0.0 0.0 0.00 0.00 0.00 13 1012.9
20260510052744 55 332 0.0 0.0 0.00 0.00 0.00 13 1012.9
20260510052243 55 331 0.0 0.0 0.00 0.00 0.00 13 1013.0
20260510051743 55 331 0.0 0.0 0.00 0.00 0.00 13 1012.9
20260510051243 55 332 0.0 0.0 0.00 0.00 0.00 13 1012.8
20260510050743 55 332 0.0 0.0 0.00 0.00 0.00 13 1012.8
20260510050243 55 332 0.0 0.0 0.00 0.00 0.00 13 1013.0
20260510045743 55 332 0.0 0.0 0.00 0.00 0.00 13 1012.7
20260510045243 55 332 0.0 0.0 0.00 0.00 0.00 13 1012.6
20260510044243 55 331 0.0 0.0 0.00 0.00 0.00 13 1012.5
20260510043243 55 332 0.0 2.6 0.00 0.00 0.00 13 1012.5
20260510042243 55 331 0.0 3.5 0.00 0.00 0.00 14 1012.5
20260510041243 56 332 1.7 5.2 0.00 0.00 0.00 14 1012.6
20260510040743 56 331 0.0 0.0 0.00 0.00 0.00 14 1012.4
20260510040243 56 332 0.0 2.6 0.00 0.00 0.00 14 1012.4
20260510035743 56 332 0.0 4.3 0.00 0.00 0.00 15 1012.1
20260510035243 56 332 0.0 5.2 0.00 0.00 0.00 15 1012.0
20260510034743 56 331 0.0 5.2 0.00 0.00 0.00 15 1012.0
20260510033743 56 333 4.3 4.3 0.00 0.00 0.00 17 1011.9
20260510033243 56 333 0.0 5.2 0.00 0.00 0.00 17 1011.8
20260510032743 56 334 0.0 5.2 0.00 0.00 0.00 18 1011.7
20260510031743 57 267 1.7 6.1 0.00 0.00 0.00 20 1011.5
20260510031243 57 304 0.9 4.3 0.00 0.00 0.00 22 1011.5
20260510030743 57 304 0.0 3.5 0.00 0.00 0.00 22 1011.6
20260510030243 57 305 0.0 3.5 0.00 0.00 0.00 24 1011.5
20260510025743 57 294 0.0 6.1 0.00 0.00 0.00 24 1011.4
20260510025243 58 292 0.9 6.1 0.00 0.00 0.00 25 1011.3
20260510024743 58 269 0.0 5.2 0.00 0.00 0.00 26 1011.2
20260510024244 58 261 0.9 6.1 0.00 0.00 0.00 27 1011.3
20260510023743 59 319 1.7 6.1 0.00 0.00 0.00 28 1011.2
20260510023243 59 287 2.6 4.3 0.00 0.00 0.00 29 1011.2
20260510022743 59 236 0.0 4.3 0.00 0.00 0.00 30 1011.2
20260510022243 59 288 1.7 6.1 0.00 0.00 0.00 31 1011.2
20260510021743 60 288 0.0 7.8 0.00 0.00 0.00 33 1011.1
20260510021243 60 257 0.0 7.8 0.00 0.00 0.00 35 1011.1
20260510020744 61 255 2.6 10.4 0.00 0.00 0.00 37 1011.0
20260510015743 62 248 4.3 9.6 0.00 0.00 0.00 41 1011.0
20260510015243 63 281 4.3 8.7 0.00 0.00 0.00 43 1011.1
20260510013243 66 306 2.6 7.8 0.00 0.00 0.00 46 1010.9
20260510012743 67 281 5.2 10.4 0.00 0.00 0.00 47 1011.0
20260510012243 67 308 0.9 10.4 0.00 0.00 0.00 47 1011.0
20260510011744 68 281 10.4 10.4 0.00 0.00 0.00 47 1011.1
20260510011243 68 221 1.7 9.6 0.00 0.00 0.00 47 1011.0
20260510010244 69 250 1.7 9.6 0.00 0.00 0.00 47 1011.1
20260510005743 69 330 0.9 9.6 0.00 0.00 0.00 47 1011.1
20260510005243 70 242 1.7 10.4 0.00 0.00 0.00 47 1011.1
20260510004742 70 306 6.1 10.4 0.00 0.00 0.00 47 1011.1
20260510003743 71 261 0.0 8.7 0.00 0.00 0.00 47 1011.0
20260510003243 72 291 4.3 10.4 0.00 0.00 0.00 47 1011.1
20260510002743 72 285 1.7 10.4 0.00 0.00 0.00 46 1011.0
20260510002243 73 284 2.6 8.7 0.00 0.00 0.00 46 1011.0
20260510001244 73 304 0.0 8.7 0.00 0.00 0.00 46 1010.9
20260510000243 73 314 1.7 9.6 0.00 0.00 0.00 45 1010.9
20260509235743 74 286 3.5 7.8 0.00 0.00 0.00 45 1011.0
20260509235243 74 312 2.6 7.8 0.00 0.00 0.00 45 1011.0
20260509234743 74 268 0.9 8.7 0.00 0.00 0.00 45 1011.1
20260509233744 74 309 0.9 9.6 0.00 0.00 0.00 45 1011.1
20260509233243 74 333 3.5 8.7 0.00 0.00 0.00 45 1011.2
20260509232743 75 260 0.0 11.3 0.00 0.00 0.00 45 1011.2
20260509232242 75 267 4.3 11.3 0.00 0.00 0.00 44 1011.2
20260509231743 75 327 9.6 9.6 0.00 0.00 0.00 44 1011.2
20260509231242 75 286 1.7 9.6 0.00 0.00 0.00 44 1011.1
20260509230742 75 267 0.0 8.7 0.00 0.00 0.00 44 1011.2
20260509230242 76 235 0.0 9.6 0.00 0.00 0.00 44 1011.2
20260509225742 76 277 0.9 11.3 0.00 0.00 0.00 44 1011.2
20260509225243 76 279 1.7 11.3 0.00 0.00 0.00 44 1011.2
20260509224743 77 346 1.7 9.6 0.00 0.00 0.00 43 1011.2
20260509224243 77 320 0.0 9.6 0.00 0.00 0.00 43 1011.2
20260509223743 77 269 3.5 12.2 0.00 0.00 0.00 43 1011.2
20260509223243 77 137 2.6 12.2 0.00 0.00 0.00 43 1011.3
20260509222742 77 269 6.1 8.7 0.00 0.00 0.00 43 1011.2
20260509222242 77 229 0.9 8.7 0.00 0.00 0.00 43 1011.2
20260509221743 77 293 4.3 12.2 0.00 0.00 0.00 43 1011.3
20260509221243 77 271 2.6 12.2 0.00 0.00 0.00 43 1011.4
20260509220742 77 288 4.3 12.2 0.00 0.00 0.00 42 1011.4
20260509220242 78 319 2.6 10.4 0.00 0.00 0.00 42 1011.4
20260509215743 79 313 2.6 13.0 0.00 0.00 0.00 42 1011.5
20260509215243 79 304 3.5 13.0 0.00 0.00 0.00 41 1011.4
20260509214743 79 251 1.7 9.6 0.00 0.00 0.00 41 1011.5
20260509214242 80 298 7.0 11.3 0.00 0.00 0.00 40 1011.5
20260509213743 80 343 5.2 13.0 0.00 0.00 0.00 40 1011.5
20260509213242 80 306 4.3 13.0 0.00 0.00 0.00 40 1011.6
20260509212743 80 321 2.6 9.6 0.00 0.00 0.00 40 1011.6
20260509211742 80 303 4.3 10.4 0.00 0.00 0.00 40 1011.7
20260509211242 80 272 0.0 10.4 0.00 0.00 0.00 40 1011.7
20260509210742 80 298 2.6 7.8 0.00 0.00 0.00 40 1011.7
20260509205743 80 281 1.7 10.4 0.00 0.00 0.00 39 1011.9
20260509205242 79 265 1.7 10.4 0.00 0.00 0.00 39 1012.0
20260509204743 79 275 2.6 6.1 0.00 0.00 0.00 39 1012.0
20260509204243 80 254 0.9 6.1 0.00 0.00 0.00 39 1012.0
20260509203743 79 311 0.9 6.1 0.00 0.00 0.00 39 1012.0
20260509202742 79 312 2.6 5.2 0.00 0.00 0.00 38 1012.1
20260509202243 79 287 1.7 5.2 0.00 0.00 0.00 38 1012.2
20260509201743 78 286 1.7 6.1 0.00 0.00 0.00 38 1012.3
20260509201243 78 249 0.0 6.1 0.00 0.00 0.00 38 1012.3
20260509200742 78 290 0.0 6.1 0.00 0.00 0.00 37 1012.3
20260509200243 78 291 3.5 7.0 0.00 0.00 0.00 37 1012.3
20260509195742 78 323 0.0 7.0 0.00 0.00 0.00 37 1012.4
20260509195242 77 313 0.0 8.7 0.00 0.00 0.00 36 1012.4
20260509194743 77 291 0.0 8.7 0.00 0.00 0.00 36 1012.5
20260509194243 77 296 1.7 5.2 0.00 0.00 0.00 36 1012.6
20260509193742 77 303 0.9 5.2 0.00 0.00 0.00 35 1012.5
20260509193242 76 305 0.0 5.2 0.00 0.00 0.00 34 1012.6
20260509192742 76 305 5.2 6.1 0.00 0.00 0.00 34 1012.6
20260509192242 75 306 0.0 6.1 0.00 0.00 0.00 34 1012.6
20260509191742 74 306 0.0 4.3 0.00 0.00 0.00 34 1012.8
20260509191242 74 306 2.6 4.3 0.00 0.00 0.00 33 1012.8
20260509190743 74 306 0.0 5.2 0.00 0.00 0.00 32 1013.0
20260509190242 73 306 1.7 5.2 0.00 0.00 0.00 32 1013.1
20260509185243 71 308 4.3 5.2 0.00 0.00 0.00 32 1013.0
20260509184742 70 301 2.6 5.2 0.00 0.00 0.00 31 1013.0
20260509184243 70 301 2.6 4.3 0.00 0.00 0.00 32 1013.1
20260509183742 69 130 0.0 5.2 0.00 0.00 0.00 32 1013.2
20260509182742 69 310 0.0 4.3 0.00 0.00 0.00 31 1013.3
20260509182242 68 313 0.0 4.3 0.00 0.00 0.00 31 1013.3
20260509181743 68 207 0.9 3.5 0.00 0.00 0.00 31 1013.3
20260509181242 68 207 0.0 5.2 0.00 0.00 0.00 31 1013.3
20260509180742 68 311 2.6 5.2 0.00 0.00 0.00 30 1013.5
20260509180242 67 271 4.3 5.2 0.00 0.00 0.00 30 1013.3
20260509175742 67 253 0.9 7.8 0.00 0.00 0.00 30 1013.3
20260509175242 67 306 0.0 7.8 0.00 0.00 0.00 29 1013.3
20260509174742 66 280 3.5 3.5 0.00 0.00 0.00 29 1013.3
20260509174242 66 280 0.9 6.1 0.00 0.00 0.00 28 1013.3
20260509173242 64 280 2.6 4.3 0.00 0.00 0.00 25 1013.3
20260509172242 62 280 0.9 2.6 0.00 0.00 0.00 24 1013.3
20260509171742 62 280 0.9 2.6 0.00 0.00 0.00 23 1013.3
20260509171242 61 280 0.0 0.9 0.00 0.00 0.00 21 1013.3
20260509170742 61 280 0.0 2.6 0.00 0.00 0.00 20 1013.4
20260509170242 60 280 0.0 2.6 0.00 0.00 0.00 19 1013.3
20260509165742 60 280 0.0 1.7 0.00 0.00 0.00 15 1013.3
20260509165242 59 280 0.0 1.7 0.00 0.00 0.00 14 1013.3
20260509164742 59 280 0.0 2.6 0.00 0.00 0.00 13 1013.3
20260509164242 58 280 0.0 2.6 0.00 0.00 0.00 13 1013.3
20260509163744 57 280 0.0 0.0 0.00 0.00 0.00 13 1013.4
20260509163242 57 280 0.0 0.0 0.00 0.00 0.00 12 1013.4
20260509162742 57 280 0.0 0.0 0.00 0.00 0.00 12 1013.4
20260509162242 56 280 0.0 0.0 0.00 0.00 0.00 12 1013.3
20260509161742 56 280 0.0 0.0 0.00 0.00 0.00 13 1013.3
20260509161242 56 280 0.0 0.0 0.00 0.00 0.00 13 1013.3
20260509160242 56 280 0.0 0.0 0.00 0.00 0.00 13 1013.3
20260509155742 56 280 0.0 0.0 0.00 0.00 0.00 13 1013.3
20260509155242 55 280 0.0 0.0 0.00 0.00 0.00 13 1013.3
20260509154742 55 280 0.0 0.0 0.00 0.00 0.00 13 1013.3
20260509154242 55 280 0.0 0.0 0.00 0.00 0.00 13 1013.4
20260509153742 55 280 0.0 0.0 0.00 0.00 0.00 13 1013.5
20260509153242 55 280 0.0 0.0 0.00 0.00 0.00 13 1013.5
20260509152742 55 280 0.0 0.0 0.00 0.00 0.00 13 1013.5
20260509152242 55 280 0.0 0.0 0.00 0.00 0.00 13 1013.5
20260509151742 55 280 0.0 0.0 0.00 0.00 0.00 13 1013.5
20260509150242 55 280 0.0 0.0 0.00 0.00 0.00 13 1013.3
20260509145742 55 280 0.0 0.0 0.00 0.00 0.00 13 1013.4
20260509145242 55 280 0.0 0.0 0.00 0.00 0.00 14 1013.4
20260509144742 55 280 0.0 0.0 0.00 0.00 0.00 14 1013.6
20260509143742 55 280 0.0 1.7 0.00 0.00 0.00 13 1013.4
20260509143241 55 280 0.0 2.6 0.00 0.00 0.00 13 1013.4
20260509142743 55 280 0.0 2.6 0.00 0.00 0.00 14 1013.4
20260509142241 55 280 0.0 0.0 0.00 0.00 0.00 14 1013.3
20260509141742 55 280 0.0 0.0 0.00 0.00 0.00 14 1013.2
20260509141242 54 280 0.0 0.0 0.00 0.00 0.00 14 1013.0
20260509140741 54 280 0.0 0.0 0.00 0.00 0.00 14 1013.0
20260509140242 54 280 0.0 0.0 0.00 0.00 0.00 14 1012.9
20260509135741 54 280 0.0 0.0 0.00 0.00 0.00 13 1013.0
20260509135241 54 280 0.0 0.0 0.00 0.00 0.00 13 1013.0
20260509134742 54 280 0.0 0.0 0.00 0.00 0.00 13 1013.1
20260509133741 54 280 0.0 0.0 0.00 0.00 0.00 13 1013.0
20260509133241 54 280 0.0 0.0 0.00 0.00 0.00 13 1013.0
20260509132742 55 280 0.0 0.0 0.00 0.00 0.00 13 1013.0
20260509132241 55 280 0.0 0.0 0.00 0.00 0.00 13 1013.1
20260509131742 55 280 0.0 0.0 0.00 0.00 0.00 13 1013.1
20260509131242 55 280 0.0 0.0 0.00 0.00 0.00 13 1013.1
20260509130742 55 280 0.0 0.0 0.00 0.00 0.00 13 1013.1
20260509130242 55 280 0.0 0.0 0.00 0.00 0.00 13 1013.2
20260509125742 55 280 0.0 0.0 0.00 0.00 0.00 13 1013.2
20260509125242 54 280 0.0 0.0 0.00 0.00 0.00 13 1013.1
20260509124242 54 280 0.0 0.0 0.00 0.00 0.00 13 1013.1
20260509123241 54 280 0.0 0.0 0.00 0.00 0.00 13 1013.0
20260509122741 54 280 0.0 0.0 0.00 0.00 0.00 13 1013.1
20260509122241 54 280 0.0 0.0 0.00 0.00 0.00 13 1013.1
20260509121241 54 280 0.0 0.0 0.00 0.00 0.00 13 1013.1
20260509120742 54 280 0.0 0.0 0.00 0.00 0.00 13 1013.1
20260509120242 54 280 0.0 0.0 0.00 0.00 0.00 13 1013.1
20260509114743 54 280 0.0 0.0 0.00 0.00 0.00 13 1013.2
20260509114242 54 280 0.0 0.0 0.00 0.00 0.00 13 1013.2
20260509113742 54 280 0.0 0.0 0.00 0.00 0.00 13 1013.3
20260509113242 54 280 0.0 0.0 0.00 0.00 0.00 13 1013.4
20260509112242 54 280 0.0 0.0 0.00 0.00 0.00 13 1013.3
20260509111743 54 280 0.0 0.0 0.00 0.00 0.00 13 1013.4
20260509110742 54 280 0.0 0.0 0.00 0.00 0.00 13 1013.5
20260509110241 54 280 0.0 0.0 0.00 0.00 0.00 13 1013.4
20260509105742 54 280 0.0 0.0 0.00 0.00 0.00 13 1013.6
20260509105242 54 280 0.0 0.0 0.00 0.00 0.00 13 1013.8
20260509104741 54 280 0.0 0.0 0.00 0.00 0.00 13 1013.7
20260509104241 54 280 0.0 0.0 0.00 0.00 0.00 13 1013.7
20260509103241 54 280 0.0 0.0 0.00 0.00 0.00 13 1013.8
20260509102741 55 280 0.0 0.0 0.00 0.00 0.00 13 1013.7
20260509101741 55 280 0.0 0.0 0.00 0.00 0.00 13 1013.7
20260509101241 55 280 0.0 0.0 0.00 0.00 0.00 13 1013.6
20260509100742 55 280 0.0 0.0 0.00 0.00 0.00 13 1013.6
20260509100242 55 280 0.0 0.0 0.00 0.00 0.00 13 1013.6
20260509095242 55 280 0.0 0.0 0.00 0.00 0.00 13 1013.7
20260509094741 55 280 0.0 0.0 0.00 0.00 0.00 13 1013.7
20260509094241 55 280 0.0 0.0 0.00 0.00 0.00 13 1013.7
20260509093742 55 280 0.0 0.0 0.00 0.00 0.00 13 1013.8
20260509093241 55 280 0.0 0.0 0.00 0.00 0.00 13 1013.8
20260509092741 55 280 0.0 0.0 0.00 0.00 0.00 13 1013.8
20260509092241 55 280 0.0 0.0 0.00 0.00 0.00 13 1013.9
20260509091742 55 280 0.0 0.0 0.00 0.00 0.00 13 1013.9
20260509091241 55 280 0.0 0.0 0.00 0.00 0.00 13 1013.9
20260509090741 55 280 0.0 0.0 0.00 0.00 0.00 13 1013.9
20260509090242 55 280 0.0 0.0 0.00 0.00 0.00 13 1014.1
20260509085242 55 280 0.0 0.0 0.00 0.00 0.00 13 1014.1
20260509084741 55 280 0.0 0.0 0.00 0.00 0.00 13 1014.1
20260509084241 55 280 0.0 0.0 0.00 0.00 0.00 13 1014.1
20260509083742 55 280 0.0 0.0 0.00 0.00 0.00 13 1014.1
20260509083241 55 280 0.0 0.0 0.00 0.00 0.00 13 1014.1
20260509082742 55 280 0.0 0.0 0.00 0.00 0.00 13 1014.3
20260509082241 55 280 0.0 0.0 0.00 0.00 0.00 13 1014.4
20260509081741 55 280 0.0 0.0 0.00 0.00 0.00 13 1014.3
20260509081241 55 280 0.0 0.0 0.00 0.00 0.00 13 1014.4
20260509080741 55 280 0.0 0.9 0.00 0.00 0.00 13 1014.5
20260509080241 55 280 0.0 3.5 0.00 0.00 0.00 13 1014.5
20260509075741 55 280 0.0 3.5 0.00 0.00 0.00 13 1014.5
20260509075241 56 280 0.0 2.6 0.00 0.00 0.00 13 1014.6
20260509074742 56 280 2.6 2.6 0.00 0.00 0.00 13 1014.6
20260509074241 56 280 0.0 1.7 0.00 0.00 0.00 13 1014.7
20260509073741 56 280 0.0 2.6 0.00 0.00 0.00 13 1014.5
20260509073241 56 280 0.0 2.6 0.00 0.00 0.00 13 1014.5
20260509072741 56 280 0.0 0.0 0.00 0.00 0.00 13 1014.5
20260509072241 56 280 0.0 0.0 0.00 0.00 0.00 13 1014.6
20260509071741 56 280 0.0 0.0 0.00 0.00 0.00 13 1014.5
20260509071241 56 280 0.0 0.0 0.00 0.00 0.00 13 1014.6
20260509070741 56 280 0.0 0.0 0.00 0.00 0.00 12 1014.7
20260509070241 56 280 0.0 0.0 0.00 0.00 0.00 12 1014.8
20260509065742 56 280 0.0 0.0 0.00 0.00 0.00 12 1014.7
20260509065241 56 280 0.0 0.0 0.00 0.00 0.00 12 1014.7
20260509064741 56 280 0.0 0.0 0.00 0.00 0.00 12 1014.7
20260509064241 56 280 0.0 0.0 0.00 0.00 0.00 12 1014.7